Location: Newark
(45.8511°N, 10.8245°E)
Time: 19:22:26
(UTC+00:00)

OTV 5 (USA 277) - Pass Details

Date: 31 August 2019
Orbit: 310 x 324 km, 54.5° (Epoch: 17 October)

Event Time Altitude Azimuth Distance (km) Brightness Sun altitude
Rises 19:36:47 0° 292° (WNW) 2,043 ? -16.7°
Reaches altitude 10° 19:39:25 10° 322° (NW) 1,212 ? -17.1°
Maximum altitude 19:40:53 14° 355° (N) 1,034 ? -17.3°
Drops below altitude 10° 19:42:21 10° 28° (NNE) 1,210 ? -17.6°
Enters shadow 19:42:39 - 33° (NNE) 1,281 ? -17.6°
